Flag for Malta Weather past 2 weeks in Valletta, Malta

Now
57 °F

Passing clouds.


Feels Like: 54 °F
Forecast: 58 / 64 °F
Wind: 16 mph from West

Location: Luqa

Current Time: Jan 30, 2015 at 3:55:07 PM

Latest Report: Jan 30, 2015 at 3:15 PM


Visibility: N/A

Pressure: 29.47 "Hg

Humidity: 77%

Dew point: 50 °F

Location of VallettaLocation

Historic Weather in Valletta — Graph

°F

Valletta temperature yesterday

Maximum temperature yesterday: 55 °F (at 10:15 AM)
Minimum temperature yesterday: 50 °F (at 12:15 AM)
Average temperature yesterday: 52 °F

Past Weeks' High & Low Weather Summary

 TemperatureHumidityPressure
High64 °F (Jan 17, 12:45 PM)100% (Jan 15, 10:15 PM)30.24 "Hg (Jan 15, 10:15 PM)
Low46 °F (Jan 26, 11:15 PM)51% (Jan 29, 1:15 PM)29.47 "Hg (Jan 30, 2:15 PM)
Average55 °F79%29.88 "Hg
* Reported Jan 15 2:15 PM — Jan 30 2:45 PM, Valletta, Weather by CustomWeather, © 2014

Note: Actual official high and low records may vary slightly from our data, if they occured in-between our weather recording intervals... More about our weather records

Advertising

Valletta weather history for previous 24 hours

 ConditionsComfort  
Time TempWeatherWind HumidityBarometerVisibility
2:45 PM
Jan 30
57 °FPartly sunny.16 mph77%29.47 "HgN/A
2:15 PM57 °FSunny.21 mph72%29.47 "Hg10 mi
1:45 PM57 °FPassing clouds.20 mph72%29.50 "HgN/A
1:15 PM57 °FScattered clouds.22 mph72%29.50 "HgN/A
12:45 PM57 °FLight rain. Passing clouds.21 mph72%29.53 "HgN/A
12:15 PM57 °FPassing clouds.21 mph72%29.53 "HgN/A
11:45 AM57 °FPassing clouds.20 mph67%29.56 "HgN/A
11:15 AM57 °FPassing clouds.22 mph67%29.56 "HgN/A
10:45 AM57 °FPassing clouds.23 mph67%29.56 "HgN/A
10:15 AM57 °FScattered clouds.23 mph67%29.59 "HgN/A
9:45 AM57 °FScattered clouds.21 mph67%29.59 "HgN/A
9:15 AM57 °FScattered clouds.22 mph67%29.59 "HgN/A
8:45 AM55 °FScattered clouds.20 mph72%29.59 "HgN/A
8:15 AM55 °FPartly sunny.23 mph72%29.59 "HgN/A
7:45 AM55 °FBroken clouds.21 mph67%29.62 "HgN/A
7:15 AM55 °FPartly sunny.20 mph72%29.62 "HgN/A
6:45 AM55 °FPassing clouds.20 mph67%29.62 "HgN/A
6:15 AM55 °FPassing clouds.18 mph67%29.62 "HgN/A
5:45 AM55 °FPassing clouds.18 mph63%29.65 "HgN/A
5:15 AM55 °FPassing clouds.21 mph63%29.65 "HgN/A
4:15 AM55 °FPassing clouds.21 mph63%29.68 "HgN/A
3:45 AM55 °FPartly cloudy.21 mph63%29.71 "HgN/A
3:15 AM55 °FPassing clouds.17 mph67%29.71 "HgN/A
2:45 AM55 °FPassing clouds.16 mph72%29.74 "HgN/A
2:15 AM55 °FPassing clouds.16 mph72%29.74 "HgN/A
1:45 AM55 °FClear.15 mph72%29.74 "Hg10 mi
1:15 AM55 °FClear.14 mph72%29.74 "Hg10 mi
12:45 AM55 °FOvercast.15 mph72%29.77 "HgN/A
12:15 AM54 °FPassing clouds.10 mph82%29.77 "HgN/A
11:45 PM
Jan 29
54 °FClear.14 mph77%29.80 "Hg10 mi
11:15 PM54 °FClear.12 mph77%29.80 "Hg10 mi
10:45 PM54 °FMostly cloudy.12 mph77%29.80 "HgN/A
10:15 PM54 °FPassing clouds.10 mph77%29.83 "HgN/A
9:45 PM54 °FPassing clouds.8 mph72%29.83 "HgN/A
9:15 PM52 °FPassing clouds.6 mph72%29.83 "HgN/A
8:45 PM50 °FPassing clouds.5 mph71%29.83 "HgN/A
8:15 PM52 °FPassing clouds.8 mph67%29.83 "HgN/A
7:45 PM50 °FPassing clouds.7 mph67%29.83 "HgN/A
7:15 PM50 °FPassing clouds.12 mph67%29.83 "HgN/A
6:45 PM50 °FPassing clouds.8 mph62%29.83 "HgN/A
6:15 PM52 °FPassing clouds.12 mph58%29.83 "HgN/A
5:45 PM52 °FPassing clouds.13 mph54%29.83 "HgN/A
5:15 PM52 °FScattered clouds.13 mph62%29.83 "HgN/A
4:45 PM54 °FScattered clouds.15 mph58%29.83 "HgN/A
4:15 PM54 °FScattered clouds.14 mph58%29.83 "HgN/A
3:45 PM55 °FScattered clouds.15 mph55%29.80 "HgN/A
3:15 PM54 °FScattered clouds.16 mph58%29.83 "HgN/A
Weather by CustomWeather, © 2014

See weather overviewHow to use our weather pages